{"data":{"norad_id":52895,"epoch":"2026-09-20T09:13:52.981536Z","epoch_age_seconds":144513,"freshness":"FRESH","line1":"1 52895U 22065B   26263.38464099  .00000013  00000+0  12724-4 0  9999","line2":"2 52895  98.2491  42.4631 0009530  99.3769 260.8508 14.58702721226235","mean_motion":14.58702721,"eccentricity":0.000953,"inclination_deg":98.2491,"raan_deg":42.4631,"arg_perigee_deg":99.3769,"mean_anomaly_deg":260.8508,"bstar":1.2724e-5,"rev_number":22623,"period_min":98.717852463648,"perigee_km":690.62293444804,"apogee_km":704.1088429539,"semimajor_km":7075.502888701,"source":"CELESTRAK","updated_at":"2026-09-21T09:00:08.759885Z"}}